| time (UTC) | temp F | wind direction | speed MPH | gust MPH | rain 1hr in | rain 24hr in | rain mn in | humidity % | barometer mb |
| 20260906092553 | 74 | 296 | 1.0 | 5.0 | 0.00 | 0.52 | 0.00 | 100 | 1010.7 |
| 20260906092028 | 74 | 298 | 3.0 | 5.0 | 0.00 | 0.52 | 0.00 | 100 | 1010.7 |
| 20260906091535 | 74 | 295 | 1.0 | 4.0 | 0.00 | 0.52 | 0.00 | 100 | 1010.6 |
| 20260906091031 | 74 | 293 | 1.0 | 5.0 | 0.00 | 0.52 | 0.00 | 100 | 1010.6 |
| 20260906090527 | 74 | 279 | 1.0 | 5.0 | 0.00 | 0.52 | 0.00 | 100 | 1010.6 |
| 20260906090034 | 74 | 316 | 0.0 | 3.0 | 0.00 | 0.52 | 0.00 | 100 | 1010.6 |
| 20260906085532 | 74 | 309 | 1.0 | 4.0 | 0.00 | 0.52 | 0.00 | 100 | 1010.6 |
| 20260906085028 | 74 | 295 | 2.0 | 4.0 | 0.00 | 0.52 | 0.00 | 100 | 1010.6 |
| 20260906084537 | 74 | 282 | 0.0 | 5.0 | 0.00 | 0.52 | 0.00 | 100 | 1010.7 |
| 20260906084034 | 74 | 270 | 1.0 | 5.0 | 0.00 | 0.52 | 0.00 | 100 | 1010.7 |
| 20260906083527 | 74 | 272 | 1.0 | 4.0 | 0.00 | 0.52 | 0.00 | 100 | 1010.7 |
| 20260906083036 | 74 | 283 | 0.0 | 2.0 | 0.00 | 0.52 | 0.00 | 100 | 1010.8 |
| 20260906082532 | 74 | 261 | 0.0 | 4.0 | 0.00 | 0.52 | 0.00 | 100 | 1010.8 |
| 20260906082028 | 74 | 257 | 0.0 | 4.0 | 0.00 | 0.52 | 0.00 | 100 | 1010.8 |
| 20260906081537 | 74 | 274 | 1.0 | 3.0 | 0.00 | 0.52 | 0.00 | 100 | 1010.7 |
| 20260906081032 | 74 | 295 | 1.0 | 2.0 | 0.00 | 0.52 | 0.00 | 100 | 1010.7 |
| 20260906080548 | 74 | 248 | 0.0 | 3.0 | 0.00 | 0.52 | 0.00 | 100 | 1010.7 |
| 20260906080056 | 74 | 245 | 1.0 | 3.0 | 0.00 | 0.52 | 0.00 | 100 | 1010.8 |
| 20260906075527 | 74 | 252 | 1.0 | 3.0 | 0.00 | 0.52 | 0.00 | 100 | 1010.8 |
| 20260906075023 | 74 | 252 | 0.0 | 2.0 | 0.00 | 0.52 | 0.00 | 100 | 1010.8 |
| 20260906074532 | 74 | 252 | 0.0 | 3.0 | 0.00 | 0.52 | 0.00 | 100 | 1010.7 |
| 20260906074029 | 74 | 252 | 1.0 | 4.0 | 0.00 | 0.52 | 0.00 | 100 | 1010.7 |
| 20260906073523 | 74 | 225 | 2.0 | 4.0 | 0.00 | 0.52 | 0.00 | 100 | 1010.7 |
| 20260906073039 | 74 | 203 | 1.0 | 4.0 | 0.00 | 0.52 | 0.00 | 100 | 1010.9 |
| 20260906072535 | 74 | 259 | 1.0 | 4.0 | 0.00 | 0.52 | 0.00 | 100 | 1010.9 |
| 20260906072029 | 74 | 262 | 1.0 | 4.0 | 0.00 | 0.52 | 0.00 | 100 | 1010.9 |
| 20260906071525 | 74 | 252 | 2.0 | 4.0 | 0.00 | 0.52 | 0.00 | 100 | 1011.2 |
| 20260906071033 | 74 | 233 | 1.0 | 3.0 | 0.00 | 0.52 | 0.00 | 100 | 1011.2 |
| 20260906070551 | 74 | 236 | 1.0 | 4.0 | 0.00 | 0.52 | 0.00 | 100 | 1011.2 |
| 20260906070028 | 74 | 255 | 0.0 | 4.0 | 0.00 | 0.52 | 0.00 | 100 | 1011.5 |
| 20260906065532 | 74 | 272 | 1.0 | 3.0 | 0.00 | 0.52 | 0.00 | 100 | 1011.5 |
| 20260906065028 | 74 | 302 | 0.0 | 4.0 | 0.00 | 0.52 | 0.00 | 100 | 1011.5 |
| 20260906064528 | 74 | 287 | 0.0 | 4.0 | 0.00 | 0.52 | 0.00 | 100 | 1011.7 |
| 20260906064035 | 74 | 249 | 2.0 | 4.0 | 0.00 | 0.52 | 0.00 | 100 | 1011.7 |
| 20260906063529 | 74 | 256 | 1.0 | 4.0 | 0.00 | 0.52 | 0.00 | 100 | 1011.7 |
| 20260906063038 | 74 | 250 | 1.0 | 3.0 | 0.00 | 0.52 | 0.00 | 100 | 1012.0 |
| 20260906062534 | 74 | 236 | 2.0 | 3.0 | 0.00 | 0.52 | 0.00 | 100 | 1012.0 |
| 20260906062031 | 74 | 245 | 2.0 | 5.0 | 0.00 | 0.52 | 0.00 | 100 | 1012.0 |
| 20260906061528 | 74 | 210 | 2.0 | 5.0 | 0.00 | 0.52 | 0.00 | 100 | 1012.2 |
| 20260906061037 | 74 | 218 | 2.0 | 3.0 | 0.00 | 0.52 | 0.00 | 100 | 1012.2 |
| 20260906060532 | 74 | 205 | 2.0 | 3.0 | 0.00 | 0.52 | 0.00 | 100 | 1012.2 |
| 20260906060032 | 74 | 209 | 1.0 | 3.0 | 0.00 | 0.52 | 0.00 | 100 | 1012.2 |
| 20260906055528 | 74 | 225 | 2.0 | 3.0 | 0.00 | 0.52 | 0.00 | 100 | 1012.2 |
| 20260906055036 | 74 | 234 | 2.0 | 3.0 | 0.00 | 0.52 | 0.00 | 100 | 1012.2 |
| 20260906054532 | 74 | 236 | 1.0 | 2.0 | 0.00 | 0.52 | 0.00 | 100 | 1012.6 |
| 20260906054028 | 74 | 236 | 1.0 | 3.0 | 0.00 | 0.52 | 0.00 | 100 | 1012.6 |
| 20260906053538 | 74 | 236 | 1.0 | 3.0 | 0.00 | 0.52 | 0.00 | 100 | 1012.6 |
| 20260906053034 | 74 | 231 | 1.0 | 3.0 | 0.00 | 0.52 | 0.00 | 100 | 1012.7 |
| 20260906052530 | 74 | 227 | 1.0 | 4.0 | 0.00 | 0.52 | 0.00 | 100 | 1012.7 |
| 20260906052026 | 74 | 192 | 3.0 | 4.0 | 0.00 | 0.52 | 0.00 | 100 | 1012.7 |
| 20260906051531 | 74 | 216 | 1.0 | 3.0 | 0.00 | 0.52 | 0.00 | 100 | 1012.7 |
| 20260906051027 | 75 | 234 | 1.0 | 7.0 | 0.00 | 0.52 | 0.00 | 100 | 1012.7 |
| 20260906050523 | 75 | 231 | 1.0 | 7.0 | 0.00 | 0.52 | 0.00 | 100 | 1012.7 |
| 20260906050032 | 75 | 209 | 2.0 | 5.0 | 0.00 | 0.52 | 0.00 | 100 | 1012.7 |
| 20260906045529 | 75 | 192 | 3.0 | 5.0 | 0.00 | 0.52 | 0.00 | 100 | 1012.7 |
| 20260906045025 | 75 | 252 | 2.0 | 7.0 | 0.00 | 0.52 | 0.00 | 100 | 1012.7 |
| 20260906044530 | 75 | 228 | 2.0 | 7.0 | 0.00 | 0.52 | 0.00 | 100 | 1012.7 |
| 20260906044047 | 75 | 234 | 2.0 | 4.0 | 0.00 | 0.52 | 0.00 | 100 | 1012.7 |
| 20260906043550 | 75 | 235 | 0.0 | 3.0 | 0.00 | 0.52 | 0.00 | 100 | 1012.7 |
| 20260906043059 | 75 | 276 | 2.0 | 3.0 | 0.00 | 0.52 | 0.00 | 100 | 1012.7 |
| 20260906042554 | 75 | 205 | 1.0 | 4.0 | 0.00 | 0.52 | 0.00 | 100 | 1012.7 |
| 20260906042050 | 75 | 198 | 2.0 | 4.0 | 0.01 | 0.52 | 0.00 | 100 | 1012.7 |
| 20260906041537 | 75 | 245 | 2.0 | 3.0 | 0.01 | 0.52 | 0.00 | 100 | 1012.8 |
| 20260906041032 | 75 | 234 | 1.0 | 3.0 | 0.01 | 0.52 | 0.00 | 100 | 1012.8 |
| 20260906040528 | 75 | 236 | 2.0 | 3.0 | 0.01 | 0.52 | 0.00 | 100 | 1012.8 |
| 20260906040036 | 75 | 247 | 1.0 | 3.0 | 0.01 | 0.52 | 0.52 | 100 | 1012.7 |
| 20260906035553 | 75 | 236 | 1.0 | 4.0 | 0.01 | 0.52 | 0.52 | 100 | 1012.7 |
| 20260906035028 | 75 | 240 | 1.0 | 4.0 | 0.01 | 0.52 | 0.52 | 100 | 1012.7 |
| 20260906034533 | 75 | 232 | 2.0 | 6.0 | 0.01 | 0.52 | 0.52 | 100 | 1012.5 |
| 20260906034030 | 75 | 226 | 2.0 | 6.0 | 0.01 | 0.52 | 0.52 | 100 | 1012.5 |
| 20260906033525 | 75 | 217 | 2.0 | 6.0 | 0.01 | 0.52 | 0.52 | 100 | 1012.5 |
| 20260906033101 | 75 | 226 | 0.0 | 3.0 | 0.01 | 0.52 | 0.52 | 100 | 1012.4 |
| 20260906032533 | 75 | 240 | 1.0 | 3.0 | 0.01 | 0.52 | 0.52 | 100 | 1012.4 |
| 20260906032026 | 75 | 229 | 1.0 | 3.0 | 0.00 | 0.51 | 0.51 | 100 | 1012.4 |
| 20260906031523 | 75 | 226 | 0.0 | 4.0 | 0.00 | 0.51 | 0.51 | 100 | 1012.4 |
| 20260906031031 | 75 | 243 | 0.0 | 4.0 | 0.01 | 0.51 | 0.51 | 100 | 1012.4 |
| 20260906030531 | 75 | 231 | 2.0 | 4.0 | 0.01 | 0.51 | 0.51 | 100 | 1012.4 |
| 20260906030026 | 75 | 234 | 1.0 | 4.0 | 0.01 | 0.51 | 0.51 | 100 | 1012.6 |
| 20260906025536 | 75 | 233 | 0.0 | 2.0 | 0.02 | 0.51 | 0.51 | 100 | 1012.6 |
| 20260906025029 | 75 | 233 | 0.0 | 3.0 | 0.02 | 0.51 | 0.51 | 100 | 1012.6 |
| 20260906024526 | 75 | 233 | 1.0 | 3.0 | 0.02 | 0.51 | 0.51 | 100 | 1012.9 |
| 20260906024036 | 75 | 229 | 0.0 | 0.0 | 0.03 | 0.51 | 0.51 | 100 | 1012.9 |
| 20260906023532 | 75 | 228 | 0.0 | 0.0 | 0.03 | 0.51 | 0.51 | 100 | 1012.9 |
| 20260906023027 | 75 | 228 | 0.0 | 3.0 | 0.03 | 0.51 | 0.51 | 100 | 1013.0 |
| 20260906022536 | 75 | 243 | 0.0 | 3.0 | 0.03 | 0.51 | 0.51 | 100 | 1013.0 |
| 20260906022033 | 75 | 231 | 1.0 | 3.0 | 0.03 | 0.51 | 0.51 | 100 | 1013.0 |
| 20260906021528 | 75 | 243 | 1.0 | 2.0 | 0.04 | 0.51 | 0.51 | 100 | 1012.9 |
| 20260906021038 | 75 | 235 | 1.0 | 2.0 | 0.03 | 0.50 | 0.50 | 100 | 1012.9 |
| 20260906020534 | 75 | 234 | 0.0 | 2.0 | 0.03 | 0.50 | 0.50 | 100 | 1012.9 |
| 20260906020031 | 75 | 234 | 1.0 | 3.0 | 0.03 | 0.50 | 0.50 | 100 | 1013.0 |
| 20260906015538 | 75 | 234 | 2.0 | 3.0 | 0.02 | 0.49 | 0.49 | 100 | 1013.0 |
| 20260906015033 | 75 | 204 | 1.0 | 4.0 | 0.03 | 0.49 | 0.49 | 100 | 1013.0 |
| 20260906014529 | 75 | 189 | 0.0 | 4.0 | 0.03 | 0.49 | 0.49 | 100 | 1012.8 |
| 20260906014027 | 75 | 238 | 1.0 | 4.0 | 0.02 | 0.48 | 0.48 | 100 | 1012.8 |
| 20260906013536 | 75 | 198 | 1.0 | 4.0 | 0.02 | 0.48 | 0.48 | 100 | 1012.8 |
| 20260906013036 | 75 | 162 | 1.0 | 6.0 | 0.03 | 0.48 | 0.48 | 100 | 1012.8 |
| 20260906012530 | 75 | 189 | 1.0 | 6.0 | 0.03 | 0.48 | 0.48 | 100 | 1012.8 |
| 20260906012025 | 75 | 165 | 1.0 | 6.0 | 0.03 | 0.48 | 0.48 | 100 | 1012.8 |
| 20260906011534 | 75 | 147 | 3.0 | 6.0 | 0.02 | 0.47 | 0.47 | 100 | 1013.1 |
| 20260906011030 | 75 | 250 | 2.0 | 6.0 | 0.02 | 0.47 | 0.47 | 100 | 1013.1 |
| 20260906010525 | 75 | 110 | 1.0 | 4.0 | 0.03 | 0.47 | 0.47 | 100 | 1013.1 |
| 20260906010021 | 75 | 123 | 0.0 | 2.0 | 0.03 | 0.47 | 0.47 | 100 | 1013.3 |
| 20260906005534 | 75 | 123 | 0.0 | 2.0 | 0.03 | 0.47 | 0.47 | 100 | 1013.3 |
| 20260906005050 | 75 | 169 | 0.0 | 5.0 | 0.02 | 0.46 | 0.46 | 100 | 1013.3 |
| 20260906004526 | 75 | 169 | 1.0 | 5.0 | 0.02 | 0.46 | 0.46 | 100 | 1013.2 |
| 20260906004023 | 75 | 173 | 0.0 | 3.0 | 0.02 | 0.46 | 0.46 | 100 | 1013.2 |
| 20260906003533 | 75 | 151 | 0.0 | 2.0 | 0.02 | 0.46 | 0.46 | 100 | 1013.2 |
| 20260906003029 | 75 | 150 | 0.0 | 1.0 | 0.01 | 0.45 | 0.45 | 100 | 1012.7 |
| 20260906002528 | 75 | 150 | 0.0 | 3.0 | 0.01 | 0.45 | 0.45 | 100 | 1012.7 |
| 20260906002024 | 75 | 150 | 1.0 | 3.0 | 0.01 | 0.45 | 0.45 | 99 | 1012.7 |
| 20260906001533 | 75 | 200 | 0.0 | 2.0 | 0.01 | 0.45 | 0.45 | 98 | 1012.8 |
| 20260906001029 | 75 | 304 | 0.0 | 1.0 | 0.01 | 0.45 | 0.45 | 97 | 1012.8 |
| 20260906000523 | 75 | 304 | 0.0 | 1.0 | 0.00 | 0.44 | 0.44 | 97 | 1012.8 |
| 20260906000030 | 75 | 304 | 0.0 | 3.0 | 0.00 | 0.44 | 0.44 | 97 | 1012.7 |
| 20260905235559 | 75 | 304 | 0.0 | 3.0 | 0.00 | 0.44 | 0.44 | 97 | 1012.7 |
| 20260905235035 | 75 | 304 | 1.0 | 2.0 | 0.00 | 0.44 | 0.44 | 97 | 1012.7 |
| 20260905234531 | 75 | 304 | 1.0 | 4.0 | 0.00 | 0.44 | 0.44 | 97 | 1013.2 |
| 20260905234027 | 75 | 304 | 0.0 | 5.0 | 0.00 | 0.44 | 0.44 | 97 | 1013.2 |
| 20260905233537 | 76 | 297 | 3.0 | 5.0 | 0.00 | 0.44 | 0.44 | 97 | 1013.2 |
| 20260905233033 | 76 | 354 | 2.0 | 7.0 | 0.00 | 0.44 | 0.44 | 98 | 1013.7 |
| 20260905232530 | 76 | 347 | 3.0 | 7.0 | 0.00 | 0.44 | 0.44 | 99 | 1013.7 |
| 20260905232046 | 76 | 21 | 2.0 | 14.0 | 0.00 | 0.44 | 0.44 | 100 | 1013.7 |
| 20260905231538 | 76 | 344 | 5.0 | 14.0 | 0.00 | 0.44 | 0.44 | 100 | 1012.8 |
| 20260905231033 | 77 | 1 | 5.0 | 12.0 | 0.00 | 0.44 | 0.44 | 100 | 1012.8 |
| 20260905230529 | 78 | 50 | 6.0 | 10.0 | 0.00 | 0.44 | 0.44 | 100 | 1012.8 |
| 20260905230058 | 78 | 142 | 0.0 | 2.0 | 0.00 | 0.44 | 0.44 | 100 | 1012.4 |
| 20260905225532 | 79 | 72 | 0.0 | 3.0 | 0.00 | 0.44 | 0.44 | 100 | 1012.4 |
| 20260905225026 | 79 | 54 | 1.0 | 3.0 | 0.00 | 0.44 | 0.44 | 100 | 1012.4 |
| 20260905224530 | 79 | 96 | 1.0 | 3.0 | 0.00 | 0.44 | 0.44 | 100 | 1012.6 |
| 20260905224026 | 79 | 61 | 1.0 | 4.0 | 0.00 | 0.44 | 0.44 | 100 | 1012.6 |
| 20260905223542 | 78 | 127 | 1.0 | 4.0 | 0.00 | 0.44 | 0.44 | 100 | 1012.6 |
| 20260905223032 | 78 | 91 | 0.0 | 2.0 | 0.00 | 0.44 | 0.44 | 100 | 1011.8 |
| 20260905222528 | 78 | 118 | 0.0 | 2.0 | 0.00 | 0.44 | 0.44 | 100 | 1011.8 |
| 20260905222025 | 77 | 117 | 0.0 | 2.0 | 0.00 | 0.44 | 0.44 | 100 | 1011.8 |
| 20260905221530 | 77 | 32 | 0.0 | 2.0 | 0.01 | 0.44 | 0.44 | 100 | 1011.2 |
| 20260905221025 | 77 | 141 | 0.0 | 2.0 | 0.01 | 0.44 | 0.44 | 100 | 1011.2 |
| 20260905220525 | 77 | 137 | 0.0 | 1.0 | 0.03 | 0.44 | 0.44 | 100 | 1011.2 |
| 20260905220034 | 77 | 160 | 0.0 | 1.0 | 0.08 | 0.44 | 0.44 | 100 | 1011.6 |
| 20260905215530 | 76 | 160 | 0.0 | 4.0 | 0.08 | 0.44 | 0.44 | 100 | 1011.6 |
| 20260905215027 | 76 | 160 | 1.0 | 4.0 | 0.08 | 0.44 | 0.44 | 100 | 1011.6 |
| 20260905214523 | 77 | 142 | 0.0 | 3.0 | 0.08 | 0.44 | 0.44 | 100 | 1011.8 |
| 20260905214032 | 77 | 117 | 0.0 | 3.0 | 0.08 | 0.44 | 0.44 | 99 | 1011.8 |
| 20260905213530 | 77 | 33 | 1.0 | 3.0 | 0.08 | 0.44 | 0.44 | 99 | 1011.8 |
| 20260905213024 | 77 | 110 | 0.0 | 2.0 | 0.08 | 0.44 | 0.44 | 99 | 1012.1 |
| 20260905212523 | 77 | 347 | 0.0 | 1.0 | 0.08 | 0.44 | 0.44 | 98 | 1012.1 |
| 20260905212037 | 77 | 347 | 0.0 | 2.0 | 0.08 | 0.44 | 0.44 | 97 | 1012.1 |
| 20260905211534 | 77 | 344 | 0.0 | 2.0 | 0.08 | 0.43 | 0.43 | 97 | 1012.7 |
| 20260905211047 | 77 | 344 | 1.0 | 4.0 | 0.12 | 0.43 | 0.43 | 96 | 1012.7 |
| 20260905210556 | 77 | 344 | 2.0 | 7.0 | 0.11 | 0.41 | 0.41 | 96 | 1012.7 |
| 20260905210033 | 77 | 30 | 2.0 | 10.0 | 0.08 | 0.37 | 0.37 | 95 | 1013.4 |
| 20260905205529 | 77 | 18 | 2.0 | 10.0 | 0.18 | 0.36 | 0.36 | 95 | 1013.4 |
| 20260905205057 | 77 | 27 | 4.0 | 7.0 | 0.36 | 0.36 | 0.36 | 94 | 1013.4 |
| 20260905204532 | 77 | 32 | 2.0 | 4.0 | 0.36 | 0.36 | 0.36 | 91 | 1012.2 |
| 20260905204028 | 77 | 55 | 1.0 | 3.0 | 0.36 | 0.36 | 0.36 | 88 | 1012.2 |
| 20260905203554 | 77 | 70 | 0.0 | 5.0 | 0.36 | 0.36 | 0.36 | 86 | 1012.2 |
| 20260905203047 | 78 | 101 | 1.0 | 9.0 | 0.36 | 0.36 | 0.36 | 84 | 1012.1 |
| 20260905202534 | 79 | 58 | 2.0 | 12.0 | 0.36 | 0.36 | 0.36 | 81 | 1012.1 |
| 20260905202029 | 80 | 84 | 2.0 | 13.0 | 0.36 | 0.36 | 0.36 | 80 | 1012.1 |
| 20260905201525 | 81 | 184 | 1.0 | 7.0 | 0.35 | 0.35 | 0.35 | 78 | 1012.3 |
| 20260905201054 | 83 | 144 | 4.0 | 7.0 | 0.31 | 0.31 | 0.31 | 74 | 1012.3 |
| 20260905200529 | 86 | 143 | 2.0 | 7.0 | 0.30 | 0.30 | 0.30 | 72 | 1012.3 |
| 20260905200034 | 88 | 146 | 1.0 | 7.0 | 0.29 | 0.29 | 0.29 | 73 | 1011.7 |
| 20260905195530 | 90 | 68 | 1.0 | 4.0 | 0.19 | 0.19 | 0.19 | 73 | 1011.7 |
| 20260905195026 | 91 | 105 | 2.0 | 4.0 | 0.02 | 0.02 | 0.02 | 66 | 1011.7 |
| 20260905194523 | 91 | 104 | 1.0 | 7.0 | 0.00 | 0.00 | 0.00 | 65 | 1011.8 |
| 20260905194034 | 92 | 144 | 2.0 | 7.0 | 0.00 | 0.00 | 0.00 | 63 | 1011.8 |
| 20260905193531 | 93 | 137 | 0.0 | 4.0 | 0.00 | 0.00 | 0.00 | 63 | 1011.8 |
| 20260905193030 | 93 | 48 | 1.0 | 9.0 | 0.00 | 0.00 | 0.00 | 62 | 1012.0 |
| 20260905192537 | 94 | 50 | 4.0 | 9.0 | 0.00 | 0.00 | 0.00 | 59 | 1012.0 |
| 20260905192033 | 96 | 37 | 1.0 | 6.0 | 0.00 | 0.00 | 0.00 | 58 | 1012.0 |
| 20260905191528 | 97 | 68 | 2.0 | 6.0 | 0.00 | 0.00 | 0.00 | 57 | 1012.2 |
| 20260905191037 | 98 | 169 | 1.0 | 5.0 | 0.00 | 0.00 | 0.00 | 56 | 1012.2 |
| 20260905190533 | 98 | 49 | 1.0 | 5.0 | 0.00 | 0.00 | 0.00 | 55 | 1012.2 |
| 20260905190030 | 98 | 122 | 3.0 | 4.0 | 0.00 | 0.00 | 0.00 | 46 | 1012.0 |
| 20260905185524 | 97 | 160 | 3.0 | 6.0 | 0.00 | 0.00 | 0.00 | 48 | 1012.0 |
| 20260905185037 | 97 | 169 | 2.0 | 7.0 | 0.00 | 0.00 | 0.00 | 44 | 1012.0 |
| 20260905184533 | 97 | 304 | 2.0 | 7.0 | 0.00 | 0.00 | 0.00 | 46 | 1012.0 |
| 20260905184028 | 97 | 241 | 1.0 | 7.0 | 0.00 | 0.00 | 0.00 | 51 | 1012.0 |
| 20260905183535 | 96 | 205 | 3.0 | 8.0 | 0.00 | 0.00 | 0.00 | 48 | 1012.0 |
| 20260905183030 | 96 | 197 | 3.0 | 8.0 | 0.00 | 0.00 | 0.00 | 48 | 1012.2 |
| 20260905182527 | 95 | 269 | 3.0 | 5.0 | 0.00 | 0.00 | 0.00 | 49 | 1012.2 |
| 20260905182035 | 95 | 288 | 1.0 | 7.0 | 0.00 | 0.00 | 0.00 | 51 | 1012.2 |
| 20260905181542 | 95 | 303 | 2.0 | 7.0 | 0.00 | 0.00 | 0.00 | 53 | 1012.4 |
| 20260905181031 | 95 | 272 | 1.0 | 5.0 | 0.00 | 0.00 | 0.00 | 50 | 1012.4 |
| 20260905180527 | 96 | 258 | 2.0 | 6.0 | 0.00 | 0.00 | 0.00 | 48 | 1012.4 |
| 20260905180023 | 95 | 359 | 3.0 | 6.0 | 0.00 | 0.00 | 0.00 | 53 | 1012.6 |
| 20260905175531 | 95 | 224 | 1.0 | 10.0 | 0.00 | 0.00 | 0.00 | 51 | 1012.6 |
| 20260905175025 | 94 | 292 | 3.0 | 10.0 | 0.00 | 0.00 | 0.00 | 54 | 1012.6 |
| 20260905174555 | 94 | 304 | 2.0 | 5.0 | 0.00 | 0.00 | 0.00 | 54 | 1012.8 |
| 20260905174029 | 93 | 248 | 1.0 | 5.0 | 0.00 | 0.00 | 0.00 | 55 | 1012.8 |
| 20260905173524 | 93 | 264 | 1.0 | 6.0 | 0.00 | 0.00 | 0.00 | 55 | 1012.8 |
| 20260905173040 | 92 | 270 | 1.0 | 6.0 | 0.00 | 0.00 | 0.00 | 58 | 1013.0 |
| 20260905172535 | 92 | 259 | 4.0 | 6.0 | 0.00 | 0.00 | 0.00 | 58 | 1013.0 |
| 20260905172032 | 92 | 301 | 1.0 | 6.0 | 0.00 | 0.00 | 0.00 | 57 | 1013.0 |
| 20260905171529 | 93 | 325 | 2.0 | 6.0 | 0.00 | 0.00 | 0.00 | 56 | 1013.2 |
| 20260905171037 | 93 | 331 | 1.0 | 5.0 | 0.00 | 0.00 | 0.00 | 56 | 1013.2 |
| 20260905170533 | 93 | 245 | 1.0 | 10.0 | 0.00 | 0.00 | 0.00 | 52 | 1013.2 |
| 20260905170031 | 93 | 208 | 4.0 | 10.0 | 0.00 | 0.00 | 0.00 | 55 | 1013.3 |
| 20260905165526 | 92 | 226 | 4.0 | 6.0 | 0.00 | 0.00 | 0.00 | 54 | 1013.3 |
| 20260905165036 | 92 | 243 | 3.0 | 7.0 | 0.00 | 0.00 | 0.00 | 55 | 1013.3 |
| 20260905164531 | 91 | 240 | 3.0 | 7.0 | 0.00 | 0.00 | 0.00 | 57 | 1013.5 |
| 20260905164027 | 91 | 317 | 4.0 | 6.0 | 0.00 | 0.00 | 0.00 | 60 | 1013.5 |
| 20260905163523 | 91 | 278 | 3.0 | 11.0 | 0.00 | 0.00 | 0.00 | 60 | 1013.5 |
| 20260905163038 | 91 | 240 | 2.0 | 11.0 | 0.00 | 0.00 | 0.00 | 59 | 1013.8 |
| 20260905162534 | 91 | 253 | 4.0 | 8.0 | 0.00 | 0.00 | 0.00 | 59 | 1013.8 |
| 20260905162030 | 91 | 207 | 3.0 | 9.0 | 0.00 | 0.00 | 0.00 | 61 | 1013.8 |
| 20260905161544 | 91 | 269 | 4.0 | 9.0 | 0.00 | 0.00 | 0.00 | 59 | 1013.9 |
| 20260905161039 | 91 | 279 | 2.0 | 9.0 | 0.00 | 0.00 | 0.00 | 62 | 1013.9 |
| 20260905160534 | 91 | 183 | 3.0 | 9.0 | 0.00 | 0.00 | 0.00 | 62 | 1013.9 |
| 20260905160030 | 90 | 243 | 4.0 | 10.0 | 0.00 | 0.00 | 0.00 | 61 | 1014.2 |
| 20260905155546 | 90 | 205 | 1.0 | 10.0 | 0.00 | 0.00 | 0.00 | 62 | 1014.2 |
| 20260905155034 | 90 | 234 | 5.0 | 9.0 | 0.00 | 0.00 | 0.00 | 62 | 1014.2 |
| 20260905154550 | 89 | 139 | 3.0 | 10.0 | 0.00 | 0.00 | 0.00 | 64 | 1014.3 |
| 20260905154032 | 89 | 172 | 4.0 | 10.0 | 0.00 | 0.00 | 0.00 | 63 | 1014.3 |
| 20260905153528 | 89 | 245 | 2.0 | 10.0 | 0.00 | 0.00 | 0.00 | 66 | 1014.3 |
| 20260905153037 | 88 | 237 | 4.0 | 10.0 | 0.00 | 0.00 | 0.00 | 66 | 1014.3 |
| 20260905152534 | 88 | 226 | 4.0 | 9.0 | 0.00 | 0.00 | 0.00 | 68 | 1014.3 |
| 20260905152030 | 88 | 244 | 4.0 | 10.0 | 0.00 | 0.00 | 0.00 | 69 | 1014.3 |
| 20260905151559 | 88 | 283 | 4.0 | 10.0 | 0.00 | 0.00 | 0.00 | 69 | 1014.3 |
| 20260905151034 | 87 | 186 | 5.0 | 10.0 | 0.00 | 0.00 | 0.00 | 70 | 1014.3 |
| 20260905150531 | 87 | 229 | 4.0 | 9.0 | 0.00 | 0.00 | 0.00 | 72 | 1014.3 |
| 20260905150028 | 87 | 239 | 5.0 | 9.0 | 0.00 | 0.00 | 0.00 | 73 | 1014.3 |
| 20260905145535 | 87 | 204 | 4.0 | 10.0 | 0.00 | 0.00 | 0.00 | 74 | 1014.3 |
| 20260905145030 | 87 | 200 | 3.0 | 12.0 | 0.00 | 0.00 | 0.00 | 73 | 1014.3 |
| 20260905144527 | 86 | 195 | 5.0 | 12.0 | 0.00 | 0.00 | 0.00 | 75 | 1014.3 |
| 20260905144056 | 86 | 278 | 4.0 | 6.0 | 0.00 | 0.00 | 0.00 | 77 | 1014.3 |
| 20260905143529 | 86 | 236 | 4.0 | 9.0 | 0.00 | 0.00 | 0.00 | 76 | 1014.3 |
| 20260905143025 | 86 | 259 | 3.0 | 9.0 | 0.00 | 0.00 | 0.00 | 78 | 1014.3 |
| 20260905142532 | 85 | 177 | 2.0 | 7.0 | 0.00 | 0.00 | 0.00 | 80 | 1014.3 |
| 20260905142028 | 85 | 239 | 3.0 | 7.0 | 0.00 | 0.00 | 0.00 | 80 | 1014.3 |
| 20260905141525 | 85 | 220 | 4.0 | 7.0 | 0.00 | 0.00 | 0.00 | 82 | 1014.3 |
| 20260905141040 | 84 | 228 | 4.0 | 6.0 | 0.00 | 0.00 | 0.00 | 83 | 1014.3 |
| 20260905140535 | 84 | 259 | 2.0 | 7.0 | 0.00 | 0.00 | 0.00 | 87 | 1014.3 |
| 20260905140028 | 83 | 237 | 4.0 | 7.0 | 0.00 | 0.00 | 0.00 | 88 | 1014.5 |
| 20260905135525 | 83 | 261 | 3.0 | 7.0 | 0.00 | 0.00 | 0.00 | 89 | 1014.5 |
| 20260905135034 | 83 | 224 | 2.0 | 7.0 | 0.00 | 0.00 | 0.00 | 91 | 1014.5 |
| 20260905134528 | 82 | 214 | 2.0 | 5.0 | 0.00 | 0.00 | 0.00 | 93 | 1014.4 |
| 20260905134044 | 82 | 280 | 1.0 | 4.0 | 0.00 | 0.00 | 0.00 | 96 | 1014.4 |
| 20260905133553 | 82 | 274 | 1.0 | 4.0 | 0.00 | 0.00 | 0.00 | 97 | 1014.4 |
| 20260905133030 | 81 | 237 | 2.0 | 6.0 | 0.00 | 0.00 | 0.00 | 99 | 1014.3 |
| 20260905132526 | 81 | 250 | 2.0 | 6.0 | 0.00 | 0.00 | 0.00 | 100 | 1014.3 |
| 20260905132055 | 81 | 246 | 3.0 | 6.0 | 0.00 | 0.00 | 0.00 | 100 | 1014.3 |
| 20260905131550 | 81 | 190 | 1.0 | 5.0 | 0.00 | 0.00 | 0.00 | 100 | 1014.3 |
| 20260905131038 | 80 | 177 | 2.0 | 5.0 | 0.00 | 0.00 | 0.00 | 100 | 1014.3 |
| 20260905130534 | 80 | 239 | 2.0 | 4.0 | 0.00 | 0.00 | 0.00 | 100 | 1014.3 |
| 20260905130030 | 80 | 219 | 1.0 | 5.0 | 0.00 | 0.00 | 0.00 | 100 | 1014.3 |
| 20260905125537 | 79 | 172 | 3.0 | 5.0 | 0.00 | 0.00 | 0.00 | 100 | 1014.3 |
| 20260905125029 | 79 | 198 | 3.0 | 4.0 | 0.00 | 0.00 | 0.00 | 100 | 1014.3 |
| 20260905124538 | 78 | 240 | 1.0 | 3.0 | 0.00 | 0.00 | 0.00 | 100 | 1014.3 |
| 20260905124033 | 78 | 246 | 1.0 | 3.0 | 0.00 | 0.00 | 0.00 | 100 | 1014.3 |
| 20260905123603 | 78 | 221 | 1.0 | 3.0 | 0.00 | 0.00 | 0.00 | 100 | 1014.3 |
| 20260905123038 | 78 | 221 | 1.0 | 3.0 | 0.00 | 0.00 | 0.00 | 100 | 1014.3 |
| 20260905122554 | 78 | 216 | 0.0 | 0.0 | 0.00 | 0.00 | 0.00 | 100 | 1014.3 |
| 20260905122030 | 77 | 216 | 0.0 | 0.0 | 0.00 | 0.00 | 0.00 | 100 | 1014.3 |
| 20260905121527 | 77 | 216 | 0.0 | 0.0 | 0.00 | 0.00 | 0.00 | 100 | 1014.3 |
| 20260905121023 | 77 | 216 | 0.0 | 0.0 | 0.00 | 0.00 | 0.00 | 100 | 1014.3 |
| 20260905120539 | 77 | 216 | 0.0 | 0.0 | 0.00 | 0.00 | 0.00 | 100 | 1014.3 |
| 20260905120033 | 77 | 216 | 0.0 | 0.0 | 0.00 | 0.00 | 0.00 | 100 | 1014.1 |
| 20260905115549 | 77 | 216 | 0.0 | 0.0 | 0.00 | 0.00 | 0.00 | 100 | 1014.1 |
| 20260905115025 | 77 | 216 | 0.0 | 0.0 | 0.00 | 0.00 | 0.00 | 100 | 1014.1 |
| 20260905114524 | 77 | 216 | 0.0 | 0.0 | 0.00 | 0.00 | 0.00 | 100 | 1013.8 |
| 20260905114033 | 77 | 216 | 0.0 | 0.0 | 0.00 | 0.00 | 0.00 | 100 | 1013.8 |
| 20260905113529 | 77 | 205 | 0.0 | 0.0 | 0.00 | 0.00 | 0.00 | 100 | 1013.8 |
| 20260905113037 | 77 | 205 | 0.0 | 0.0 | 0.00 | 0.00 | 0.00 | 100 | 1013.7 |
| 20260905112554 | 77 | 205 | 0.0 | 0.0 | 0.00 | 0.00 | 0.00 | 100 | 1013.7 |
| 20260905112029 | 77 | 205 | 0.0 | 0.0 | 0.00 | 0.00 | 0.00 | 100 | 1013.7 |
| 20260905111537 | 77 | 205 | 0.0 | 0.0 | 0.00 | 0.00 | 0.00 | 100 | 1013.7 |
| 20260905111054 | 77 | 205 | 0.0 | 0.0 | 0.00 | 0.00 | 0.00 | 100 | 1013.7 |
| 20260905110529 | 77 | 205 | 0.0 | 0.0 | 0.00 | 0.00 | 0.00 | 100 | 1013.7 |
| 20260905110058 | 77 | 205 | 0.0 | 0.0 | 0.00 | 0.00 | 0.00 | 100 | 1013.5 |
| 20260905105532 | 77 | 205 | 0.0 | 0.0 | 0.00 | 0.00 | 0.00 | 100 | 1013.5 |
| 20260905105029 | 77 | 205 | 0.0 | 0.0 | 0.00 | 0.00 | 0.00 | 100 | 1013.5 |
| 20260905104526 | 77 | 205 | 0.0 | 0.0 | 0.00 | 0.00 | 0.00 | 100 | 1013.3 |
| 20260905104022 | 77 | 205 | 0.0 | 0.0 | 0.00 | 0.00 | 0.00 | 100 | 1013.3 |
| 20260905103539 | 77 | 205 | 0.0 | 0.0 | 0.00 | 0.00 | 0.00 | 100 | 1013.3 |
| 20260905103035 | 77 | 205 | 0.0 | 0.0 | 0.00 | 0.00 | 0.00 | 100 | 1013.3 |
| 20260905102530 | 77 | 205 | 0.0 | 0.0 | 0.00 | 0.00 | 0.00 | 100 | 1013.3 |
| 20260905102033 | 77 | 205 | 0.0 | 0.0 | 0.00 | 0.00 | 0.00 | 100 | 1013.3 |
| 20260905101528 | 77 | 205 | 0.0 | 0.0 | 0.00 | 0.00 | 0.00 | 100 | 1013.3 |
| 20260905101025 | 77 | 205 | 0.0 | 0.0 | 0.00 | 0.00 | 0.00 | 100 | 1013.3 |
| 20260905100533 | 77 | 205 | 0.0 | 0.0 | 0.00 | 0.00 | 0.00 | 100 | 1013.3 |
| 20260905100029 | 77 | 205 | 0.0 | 0.0 | 0.00 | 0.00 | 0.00 | 100 | 1013.5 |
| 20260905095526 | 77 | 205 | 0.0 | 0.0 | 0.00 | 0.00 | 0.00 | 100 | 1013.5 |
| 20260905095022 | 77 | 205 | 0.0 | 0.0 | 0.00 | 0.00 | 0.00 | 100 | 1013.5 |
| 20260905094533 | 77 | 205 | 0.0 | 0.0 | 0.00 | 0.00 | 0.00 | 100 | 1013.5 |
| 20260905094030 | 77 | 205 | 0.0 | 0.0 | 0.00 | 0.00 | 0.00 | 100 | 1013.5 |
| 20260905093546 | 77 | 205 | 0.0 | 0.0 | 0.00 | 0.00 | 0.00 | 100 | 1013.5 |
| 20260905093025 | 77 | 205 | 0.0 | 0.0 | 0.00 | 0.00 | 0.00 | 100 | 1013.2 |